GW7187 Weather Reports


time (UTC)temp
F
wind
direction
speed
knots
gust
knots
rain 1hr
in
rain 24hr
in
rain mn
in
humidity
%
barometer
mb
20260507160248 72 348 1.7 1.7 0.00 0.00 0.00 46 1017.6
20260507155747 72 310 2.6 2.6 0.00 0.00 0.00 45 1017.6
20260507155247 73 287 0.0 0.0 0.00 0.00 0.00 41 1017.6
20260507154747 74 341 2.6 2.6 0.00 0.00 0.00 38 1017.6
20260507154247 75 354 1.7 1.7 0.00 0.00 0.00 37 1017.6
20260507153748 75 347 2.6 2.6 0.00 0.00 0.00 36 1017.6
20260507153248 76 353 0.0 0.0 0.00 0.00 0.00 35 1017.6
20260507152747 76 343 2.6 2.6 0.00 0.00 0.00 35 1017.6
20260507152247 76 345 3.5 3.5 0.00 0.00 0.00 29 1017.6
20260507151748 77 354 0.0 0.0 0.00 0.00 0.00 30 1017.6
20260507151247 76 270 1.7 1.7 0.00 0.00 0.00 29 1017.3
20260507150748 77 306 1.7 1.7 0.00 0.00 0.00 28 1017.6
20260507150248 78 30 0.0 0.0 0.00 0.00 0.00 29 1017.6
20260507145748 78 350 0.0 0.0 0.00 0.00 0.00 29 1017.3
20260507145248 78 270 0.0 0.0 0.00 0.00 0.00 31 1017.3
20260507144747 78 48 0.0 0.0 0.00 0.00 0.00 30 1017.3
20260507144248 77 338 0.0 0.0 0.00 0.00 0.00 29 1017.6
20260507143748 78 64 0.0 0.0 0.00 0.00 0.00 30 1017.6
20260507143248 78 227 0.0 0.0 0.00 0.00 0.00 31 1017.6
20260507142748 78 216 0.0 0.0 0.00 0.00 0.00 28 1017.6
20260507142248 77 299 0.0 0.0 0.00 0.00 0.00 32 1017.3
20260507141748 80 287 0.0 0.0 0.00 0.00 0.00 30 1017.6
20260507141256 78 274 0.0 0.0 0.00 0.00 0.00 31 1017.3
20260507140748 79 126 0.0 0.0 0.00 0.00 0.00 33 1017.3
20260507140247 78 186 0.0 0.0 0.00 0.00 0.00 35 1017.3
20260507135748 77 30 0.0 0.0 0.00 0.00 0.00 35 1017.6
20260507135248 77 60 2.6 2.6 0.00 0.00 0.00 36 1017.6
20260507134748 77 72 2.6 2.6 0.00 0.00 0.00 35 1017.3
20260507134248 78 90 0.0 0.0 0.00 0.00 0.00 34 1017.3
20260507133748 77 306 0.0 0.0 0.00 0.00 0.00 37 1017.6
20260507133248 76 282 1.7 1.7 0.00 0.00 0.00 36 1017.6
20260507132748 75 44 0.0 0.0 0.00 0.00 0.00 35 1017.6
20260507132249 76 217 1.7 1.7 0.00 0.00 0.00 36 1017.6
20260507131747 75 276 1.7 1.7 0.00 0.00 0.00 36 1017.6
20260507131248 75 282 2.6 2.6 0.00 0.00 0.00 35 1017.9
20260507130747 76 293 2.6 2.6 0.00 0.00 0.00 37 1017.6
20260507130249 75 239 0.9 0.9 0.00 0.00 0.00 36 1017.9
20260507125748 75 282 2.6 2.6 0.00 0.00 0.00 37 1017.9
20260507125247 75 293 1.7 1.7 0.00 0.00 0.00 37 1017.9
20260507124748 74 210 3.5 4.3 0.00 0.00 0.00 39 1017.9
20260507124247 75 258 0.0 0.0 0.00 0.00 0.00 37 1017.9
20260507123747 75 236 1.7 1.7 0.00 0.00 0.00 37 1017.6
20260507123248 74 190 3.5 4.3 0.00 0.00 0.00 39 1017.9
20260507122747 75 222 4.3 4.3 0.00 0.00 0.00 39 1017.9
20260507122247 74 145 1.7 1.7 0.00 0.00 0.00 38 1017.9
20260507121747 74 250 2.6 2.6 0.00 0.00 0.00 40 1017.9
20260507121248 75 223 2.6 2.6 0.00 0.00 0.00 39 1017.9
20260507120747 75 210 4.3 6.1 0.00 0.00 0.00 39 1017.9
20260507120247 74 254 1.7 1.7 0.00 0.00 0.00 39 1018.3
20260507115747 75 194 2.6 2.6 0.00 0.00 0.00 40 1018.3
20260507115249 75 228 0.0 0.0 0.00 0.00 0.00 38 1018.3
20260507114748 76 265 0.0 0.0 0.00 0.00 0.00 39 1018.3
20260507114248 76 70 0.0 0.0 0.00 0.00 0.00 36 1018.3
20260507113748 75 328 0.9 0.9 0.00 0.00 0.00 37 1018.3
20260507113247 75 184 4.3 4.3 0.00 0.00 0.00 38 1018.3
20260507112748 75 286 1.7 1.7 0.00 0.00 0.00 38 1018.6
20260507112248 76 150 0.9 0.9 0.00 0.00 0.00 39 1018.6
20260507111748 76 8 0.0 0.0 0.00 0.00 0.00 38 1018.6
20260507111247 76 114 0.0 0.0 0.00 0.00 0.00 36 1018.6
20260507110747 73 78 0.0 0.0 0.00 0.00 0.00 37 1018.6
20260507110248 73 162 2.6 2.6 0.00 0.00 0.00 41 1018.6
20260507105747 73 154 1.7 1.7 0.00 0.00 0.00 40 1019.0
20260507105248 73 138 0.9 0.9 0.00 0.00 0.00 40 1019.0
20260507104748 73 212 2.6 2.6 0.00 0.00 0.00 40 1019.0
20260507104247 73 245 1.7 1.7 0.00 0.00 0.00 41 1019.0
20260507103747 73 127 2.6 3.5 0.00 0.00 0.00 41 1019.0
20260507103248 73 236 4.3 6.1 0.00 0.00 0.00 42 1019.0
20260507102748 72 65 0.9 0.9 0.00 0.00 0.00 43 1019.0
20260507102247 72 150 3.5 3.5 0.00 0.00 0.00 45 1019.0
20260507101747 73 239 1.7 1.7 0.00 0.00 0.00 43 1019.0
20260507101247 73 134 0.0 0.0 0.00 0.00 0.00 44 1019.3
20260507100747 72 127 3.5 3.5 0.00 0.00 0.00 44 1019.0
20260507100247 72 151 2.6 2.6 0.00 0.00 0.00 44 1019.0
20260507095747 71 186 2.6 2.6 0.00 0.00 0.00 45 1019.3
20260507095247 69 168 1.7 1.7 0.00 0.00 0.00 47 1019.3
20260507094747 70 205 7.0 7.0 0.00 0.00 0.00 46 1019.3
20260507094248 70 222 7.0 7.8 0.00 0.00 0.00 46 1019.3
20260507093748 71 198 3.5 3.5 0.00 0.00 0.00 44 1019.3
20260507093248 70 204 4.3 4.3 0.00 0.00 0.00 45 1019.6
20260507092747 69 151 4.3 4.3 0.00 0.00 0.00 44 1019.6
20260507092249 69 234 2.6 2.6 0.00 0.00 0.00 47 1020.0
20260507091747 70 156 3.5 3.5 0.00 0.00 0.00 47 1019.6
20260507091247 69 112 1.7 1.7 0.00 0.00 0.00 47 1019.6
20260507090748 68 223 1.7 1.7 0.00 0.00 0.00 47 1019.6
20260507090247 69 288 1.7 1.7 0.00 0.00 0.00 46 1020.0
20260507085747 70 138 2.6 2.6 0.00 0.00 0.00 47 1020.0
20260507085247 69 211 3.5 4.3 0.00 0.00 0.00 48 1020.0
20260507084748 69 180 4.3 4.3 0.00 0.00 0.00 47 1020.0
20260507084247 70 119 2.6 2.6 0.00 0.00 0.00 49 1020.0
20260507083747 69 161 3.5 3.5 0.00 0.00 0.00 47 1020.0
20260507083248 69 205 4.3 4.3 0.00 0.00 0.00 52 1020.0
20260507082747 68 143 0.9 0.9 0.00 0.00 0.00 49 1020.0
20260507082247 67 199 3.5 3.5 0.00 0.00 0.00 53 1020.3
20260507081747 67 186 3.5 4.3 0.00 0.00 0.00 51 1020.3
20260507081247 67 41 0.0 0.0 0.00 0.00 0.00 54 1020.0
20260507080747 66 211 4.3 5.2 0.00 0.00 0.00 54 1020.0
20260507080247 67 132 0.9 0.9 0.00 0.00 0.00 54 1020.3
20260507075747 66 0 3.5 3.5 0.00 0.00 0.00 57 1020.3
20260507075248 65 156 2.6 2.6 0.00 0.00 0.00 59 1020.3
20260507074748 65 199 3.5 3.5 0.00 0.00 0.00 60 1020.3
20260507074247 65 242 1.7 1.7 0.00 0.00 0.00 60 1020.3
20260507073748 64 160 4.3 4.3 0.00 0.00 0.00 60 1020.3
20260507073247 65 152 1.7 1.7 0.00 0.00 0.00 58 1020.3
20260507072748 64 258 1.7 1.7 0.00 0.00 0.00 60 1020.3
20260507072251 64 222 6.1 6.1 0.00 0.00 0.00 63 1020.3
20260507071748 63 137 3.5 3.5 0.00 0.00 0.00 63 1020.0
20260507071248 63 221 4.3 4.3 0.00 0.00 0.00 64 1020.0
20260507070748 63 176 5.2 6.1 0.00 0.00 0.00 64 1020.3
20260507070247 63 286 3.5 3.5 0.00 0.00 0.00 64 1020.3
20260507065748 63 126 2.6 3.5 0.00 0.00 0.00 61 1020.3
20260507065247 63 185 2.6 3.5 0.00 0.00 0.00 64 1020.3
20260507064747 62 84 0.0 0.0 0.00 0.00 0.00 65 1020.3
20260507064247 61 221 4.3 4.3 0.00 0.00 0.00 67 1020.7
20260507063747 61 217 4.3 5.2 0.00 0.00 0.00 67 1020.7
20260507063247 60 176 1.7 1.7 0.00 0.00 0.00 67 1020.3
20260507062747 60 147 1.7 1.7 0.00 0.00 0.00 70 1020.7
20260507062248 60 198 4.3 5.2 0.00 0.00 0.00 69 1020.3
20260507061748 60 180 2.6 2.6 0.00 0.00 0.00 70 1020.7
20260507061249 60 156 4.3 4.3 0.00 0.00 0.00 70 1020.7
20260507060748 60 167 2.6 2.6 0.00 0.00 0.00 72 1020.7
20260507060247 60 222 1.7 1.7 0.00 0.00 0.00 70 1020.7
20260507055748 59 146 2.6 2.6 0.00 0.00 0.00 70 1020.7
20260507055247 58 144 2.6 2.6 0.00 0.00 0.00 70 1020.3
20260507054747 58 186 2.6 2.6 0.00 0.00 0.00 70 1020.3
20260507054249 58 277 1.7 1.7 0.00 0.00 0.00 71 1020.7
20260507053747 58 155 2.6 2.6 0.00 0.00 0.00 73 1020.3
20260507053248 58 165 1.7 1.7 0.00 0.00 0.00 74 1020.7
20260507052747 57 138 1.7 1.7 0.00 0.00 0.00 75 1020.3
20260507052247 58 210 5.2 6.1 0.00 0.00 0.00 74 1020.3
20260507051747 58 282 1.7 1.7 0.00 0.00 0.00 72 1020.3
20260507051247 58 136 0.0 0.0 0.00 0.00 0.00 71 1020.3
20260507050747 59 182 0.0 0.0 0.00 0.00 0.00 70 1020.3
20260507050248 59 162 0.0 0.0 0.00 0.00 0.00 69 1020.0
20260507045748 58 126 0.0 0.0 0.00 0.00 0.00 71 1020.0
20260507045247 58 162 0.9 0.9 0.00 0.00 0.00 70 1020.0
20260507044748 57 91 0.0 0.0 0.00 0.00 0.00 70 1020.3
20260507044248 57 171 0.0 0.0 0.00 0.00 0.00 74 1020.0
20260507043749 57 102 0.0 0.0 0.00 0.00 0.00 74 1020.0
20260507043248 55 142 0.9 0.9 0.00 0.00 0.00 74 1020.0
20260507042748 55 138 0.0 0.0 0.00 0.00 0.00 76 1020.0
20260507042247 54 192 0.0 0.0 0.00 0.00 0.00 77 1020.0
20260507041751 55 144 0.0 0.0 0.00 0.00 0.00 75 1020.0
20260507041249 54 126 0.0 0.0 0.00 0.00 0.00 78 1020.0
20260507040747 54 78 0.0 0.0 0.00 0.00 0.00 79 1020.0
20260507040249 54 159 0.0 0.0 0.00 0.00 0.00 80 1020.0
20260507035748 53 108 0.0 0.0 0.00 0.00 0.00 81 1019.6
20260507035248 53 150 0.9 0.9 0.00 0.00 0.00 82 1020.0
20260507034748 53 90 0.0 0.0 0.00 0.00 0.00 81 1019.6
20260507034247 53 36 0.0 0.0 0.00 0.00 0.00 81 1019.6
20260507033747 52 6 0.0 0.0 0.00 0.00 0.00 82 1019.6
20260507033247 51 197 0.0 0.0 0.00 0.00 0.00 85 1019.6
20260507032749 51 203 0.0 0.0 0.00 0.00 0.00 86 1019.3
20260507032248 51 270 0.0 0.0 0.00 0.00 0.00 86 1019.3
20260507031747 51 246 0.0 0.0 0.00 0.00 0.00 85 1019.6
20260507031249 51 272 0.0 0.0 0.00 0.00 0.00 85 1019.3
20260507030748 51 213 0.0 0.0 0.00 0.00 0.00 85 1019.3
20260507030250 50 204 0.0 0.0 0.00 0.00 0.00 86 1019.3
20260507025748 50 234 0.9 0.9 0.00 0.00 0.00 86 1019.3
20260507025247 50 225 0.9 0.9 0.00 0.00 0.00 86 1019.3
20260507024748 51 171 0.9 0.9 0.00 0.00 0.00 86 1019.3
20260507024248 51 96 0.0 0.0 0.00 0.00 0.00 86 1019.0
20260507023748 51 186 0.0 0.0 0.00 0.00 0.00 86 1019.0
20260507023248 51 96 0.0 0.0 0.00 0.00 0.00 86 1019.0
20260507022747 51 240 0.0 0.0 0.00 0.00 0.00 86 1019.3
20260507022248 51 216 0.0 0.0 0.00 0.00 0.00 85 1019.0
20260507021748 51 156 0.0 0.0 0.00 0.00 0.00 85 1019.0
20260507021252 51 259 0.0 0.0 0.00 0.00 0.00 85 1019.0
20260507020748 51 36 0.0 0.0 0.00 0.00 0.00 83 1019.0
20260507020247 51 90 0.0 0.0 0.00 0.00 0.00 84 1019.0
20260507015748 51 60 0.9 0.9 0.00 0.00 0.00 84 1019.0
20260507015248 51 72 0.0 0.0 0.00 0.00 0.00 84 1018.6
20260507014747 51 187 0.0 0.0 0.00 0.00 0.00 84 1019.0
20260507014248 52 216 0.0 0.0 0.00 0.00 0.00 84 1019.0
20260507013748 52 225 0.0 0.0 0.00 0.00 0.00 82 1018.6
20260507013247 52 203 2.6 2.6 0.00 0.00 0.00 82 1019.0
20260507012748 52 204 4.3 4.3 0.00 0.00 0.00 81 1018.6
20260507012247 53 248 0.9 0.9 0.00 0.00 0.00 79 1019.0
20260507011748 53 234 1.7 1.7 0.00 0.00 0.00 80 1018.6
20260507011248 53 174 0.0 0.0 0.00 0.00 0.00 81 1018.6
20260507010747 53 288 0.0 0.0 0.00 0.00 0.00 82 1018.6
20260507010247 53 177 0.0 0.0 0.00 0.00 0.00 82 1018.3
20260507005748 53 355 0.0 0.0 0.00 0.00 0.00 81 1018.6
20260507005247 53 180 0.0 0.0 0.00 0.00 0.00 81 1018.6
20260507004747 53 192 0.0 0.0 0.00 0.00 0.00 80 1018.6
20260507004247 53 192 0.0 0.0 0.00 0.00 0.00 80 1018.6
20260507003748 53 6 0.0 0.0 0.00 0.00 0.00 80 1018.6
20260507003247 54 159 0.9 0.9 0.00 0.00 0.00 78 1018.3
20260507002747 54 198 0.9 0.9 0.00 0.00 0.00 77 1018.3
20260507002248 54 240 0.0 0.0 0.00 0.00 0.00 77 1018.3
20260507001747 54 204 0.0 0.0 0.00 0.00 0.00 76 1018.3
20260507001248 54 222 0.9 0.9 0.00 0.00 0.00 76 1018.6
20260507000747 54 130 0.0 0.0 0.00 0.00 0.00 76 1018.3
20260507000247 55 188 1.7 1.7 0.00 0.00 0.00 75 1018.3
20260506235747 55 220 1.7 1.7 0.00 0.00 0.00 74 1018.3
20260506235247 55 150 1.7 1.7 0.00 0.00 0.00 74 1018.6
20260506234748 56 192 2.6 2.6 0.00 0.00 0.00 73 1018.3
20260506234248 57 120 0.0 0.0 0.00 0.00 0.00 73 1018.6
20260506233748 57 176 0.0 0.0 0.00 0.00 0.00 72 1018.3
20260506233247 57 252 0.0 0.0 0.00 0.00 0.00 70 1018.3
20260506232748 57 234 0.0 0.0 0.00 0.00 0.00 71 1018.3
20260506232247 57 342 2.6 2.6 0.00 0.00 0.00 69 1018.6
20260506231748 57 276 4.3 5.2 0.00 0.00 0.00 70 1018.3
20260506231248 57 336 2.6 2.6 0.00 0.00 0.00 68 1018.3
20260506230748 58 348 3.5 3.5 0.00 0.00 0.00 69 1018.3
20260506230248 58 287 3.5 3.5 0.00 0.00 0.00 68 1018.3
20260506225747 58 294 0.9 0.9 0.00 0.00 0.00 68 1018.3
20260506225249 58 6 4.3 4.3 0.00 0.00 0.00 68 1018.3
20260506224748 58 30 0.9 0.9 0.00 0.00 0.00 67 1018.3
20260506224248 58 34 0.9 0.9 0.00 0.00 0.00 67 1018.6
20260506223747 58 1 2.6 2.6 0.00 0.00 0.00 68 1018.3
20260506223248 58 48 0.9 0.9 0.00 0.00 0.00 67 1018.3
20260506222747 58 6 0.9 0.9 0.00 0.00 0.00 68 1018.6
20260506222248 58 354 2.6 2.6 0.00 0.00 0.00 69 1018.3
20260506221748 58 54 0.9 0.9 0.00 0.00 0.00 67 1018.3
20260506221247 58 300 0.9 0.9 0.00 0.00 0.00 67 1018.3
20260506220753 58 6 2.6 2.6 0.00 0.00 0.00 66 1018.3
20260506220248 58 30 2.6 2.6 0.00 0.00 0.00 65 1018.6
20260506215747 58 168 1.7 1.7 0.00 0.00 0.00 68 1018.6
20260506215248 58 1 2.6 3.5 0.00 0.00 0.00 69 1018.6
20260506214748 58 324 2.6 2.6 0.00 0.00 0.00 69 1018.6
20260506214251 58 48 3.5 4.3 0.00 0.00 0.00 68 1018.6
20260506213748 58 30 2.6 2.6 0.00 0.00 0.00 67 1018.6
20260506213247 59 48 1.7 1.7 0.00 0.00 0.00 66 1018.6
20260506212748 59 316 0.9 0.9 0.00 0.00 0.00 65 1018.6
20260506212248 59 348 3.5 4.3 0.00 0.00 0.00 64 1018.6
20260506211748 59 48 1.7 1.7 0.00 0.00 0.00 61 1018.6
20260506211247 59 342 2.6 2.6 0.00 0.00 0.00 64 1018.6
20260506210748 59 324 1.7 1.7 0.00 0.00 0.00 66 1019.0
20260506210248 58 1 3.5 3.5 0.00 0.00 0.00 64 1018.6
20260506205747 58 6 2.6 3.5 0.00 0.00 0.00 68 1018.6
20260506205247 58 187 3.5 4.3 0.00 0.00 0.00 68 1018.6
20260506204747 58 6 1.7 1.7 0.00 0.00 0.00 68 1018.3
20260506204249 58 84 1.7 1.7 0.00 0.00 0.00 68 1018.6
20260506203748 59 342 1.7 1.7 0.00 0.00 0.00 65 1018.6
20260506203247 59 350 2.6 2.6 0.00 0.00 0.00 65 1018.3
20260506202747 60 348 2.6 2.6 0.00 0.00 0.00 63 1018.3
20260506202247 59 36 3.5 4.3 0.00 0.00 0.00 63 1018.3
20260506201748 59 311 1.7 1.7 0.00 0.00 0.00 65 1018.6
20260506201248 59 342 4.3 4.3 0.00 0.00 0.00 65 1018.3
20260506200747 60 300 2.6 2.6 0.00 0.00 0.00 64 1018.3
20260506200248 61 348 0.0 0.0 0.00 0.00 0.00 59 1018.3
20260506195747 61 294 1.7 1.7 0.00 0.00 0.00 57 1018.6
20260506195247 61 336 0.0 0.0 0.00 0.00 0.00 60 1018.3
20260506194748 61 260 0.0 0.0 0.00 0.00 0.00 59 1018.3
20260506194248 62 318 4.3 5.2 0.00 0.00 0.00 58 1018.3
20260506193749 61 339 7.8 7.8 0.00 0.00 0.00 58 1018.3
20260506193249 61 183 5.2 6.1 0.00 0.00 0.00 60 1018.3
20260506192748 61 310 4.3 4.3 0.00 0.00 0.00 59 1018.3
20260506192247 61 0 4.3 6.1 0.00 0.00 0.00 61 1018.3
20260506191748 61 344 6.1 7.0 0.00 0.00 0.00 61 1018.3
20260506191247 62 351 4.3 4.3 0.00 0.00 0.00 58 1018.3
20260506190747 62 342 4.3 4.3 0.00 0.00 0.00 58 1018.3
20260506190247 62 354 5.2 5.2 0.00 0.00 0.00 57 1018.3
20260506185747 62 348 3.5 3.5 0.00 0.00 0.00 56 1018.3
20260506185248 62 336 4.3 4.3 0.00 0.00 0.00 60 1018.3
20260506184748 62 288 0.9 0.9 0.00 0.00 0.00 60 1018.3
20260506184248 62 294 1.7 1.7 0.00 0.00 0.00 57 1018.3
20260506183747 62 276 4.3 4.3 0.00 0.00 0.00 56 1018.3
20260506183248 61 208 1.7 1.7 0.00 0.00 0.00 63 1018.3
20260506182747 60 120 0.9 0.9 0.00 0.00 0.00 61 1018.3
20260506182247 60 60 0.0 0.0 0.00 0.00 0.00 63 1017.9
20260506181747 60 1 2.6 2.6 0.00 0.00 0.00 65 1018.3
20260506181249 61 113 1.7 1.7 0.00 0.00 0.00 64 1018.3
20260506180748 61 42 1.7 1.7 0.00 0.00 0.00 62 1017.9
20260506180249 61 0 0.0 0.0 0.00 0.00 0.00 61 1017.9
20260506175747 62 276 1.7 1.7 0.00 0.00 0.00 62 1017.9
20260506175247 61 350 0.9 0.9 0.00 0.00 0.00 62 1017.9
20260506174749 61 66 1.7 1.7 0.00 0.00 0.00 62 1017.6
20260506174248 61 36 3.5 4.3 0.00 0.00 0.00 60 1017.6
20260506173747 62 72 2.6 2.6 0.00 0.00 0.00 63 1017.6
20260506173248 62 84 1.7 1.7 0.00 0.00 0.00 61 1017.6
20260506172747 63 276 1.7 1.7 0.00 0.00 0.00 59 1017.6
20260506172248 63 228 3.5 3.5 0.00 0.00 0.00 59 1017.3
20260506171747 63 206 3.5 4.3 0.00 0.00 0.00 59 1017.3
20260506171248 63 354 0.0 0.0 0.00 0.00 0.00 59 1016.9
20260506170747 63 294 7.8 7.8 0.00 0.00 0.00 58 1016.9
20260506170248 63 282 1.7 1.7 0.00 0.00 0.00 58 1016.9
20260506165748 63 242 5.2 6.1 0.00 0.00 0.00 59 1016.9
20260506165248 63 261 6.1 7.0 0.00 0.00 0.00 58 1017.3
20260506164748 64 312 3.5 4.3 0.00 0.00 0.00 58 1016.9
20260506164248 64 312 5.2 5.2 0.00 0.00 0.00 58 1016.9
20260506163747 64 282 7.0 7.8 0.00 0.00 0.00 58 1016.9
20260506163256 64 282 7.8 7.8 0.00 0.00 0.00 57 1016.9
20260506162749 64 312 6.1 7.0 0.00 0.00 0.00 57 1016.9
20260506162248 64 264 4.3 4.3 0.00 0.00 0.00 57 1016.9
20260506161748 64 282 2.6 2.6 0.00 0.00 0.00 56 1016.9
20260506161247 65 318 6.1 6.1 0.00 0.00 0.00 56 1016.9
20260506160750 65 288 2.6 2.6 0.00 0.00 0.00 56 1016.9